sat.trackr.live / text

‹ back to catalog

ONEWEB-0608

NORAD 54672 · 2022-166AG

PAYLOAD ACTIVE UNKNOWN

§ Identity

Operator
Country
UK
Launch date
2022-12-08
Launch site
AFETR
Launch vehicle
Mass (kg)
RCS (m²)

Purposes: comms

External: N2YO · Heavens-Above · Gunter

§ Orbital elements

Epoch: 2026-09-19T16:15:54.363456Z

Period
108.94 min
Inclination
87.9289°
Eccentricity
0.0002421
Mean motion
13.21827524 rev/d
Perigee alt
1,175.9 km
Apogee alt
1,179.6 km
Semi-major
7,555.9 km
B*
1.1259e-4
RAAN
225.1668°
Arg perigee
90.3781°
Mean anomaly
269.7630°
Rev number
18,403

§ Raw data

ONEWEB-06081 54672U 22166AG  26262.67771254  .00000060  00000+0  11259-3 0  99942 54672  87.9289 225.1668 0002421  90.3781 269.7630 13.21827524184030

JSON: /api/v1/satellites/54672 · /tle

For live sub-satellite position, see the globe view (requires WebGL).

§ Visibility from observer

Set your observer location to see the next 7 days of passes ≥ 10°. The values pass through the URL so the page stays shareable.

No JS? Fill the form by hand. The geolocation button needs JavaScript.